Idabel, OK

5:38 AM CST on February 13, 2016 (GMT -0600)
Idabel

Weather History for K4O4 - March, 2014

Change the Weather History Date:

Monday, March 17, 2014

  Actual Average (KDEQ) Record (KDEQ)
Temperature  
Mean Temperature 46 °F 54 °F  
Max Temperature 60 °F 66 °F 87 °F (1982)
Min Temperature 33 °F 41 °F 23 °F (1960)
Degree Days  
Heating Degree Days 18 12  
Month to date heating degree days 234  
Since 1 July heating degree days 2725  
Cooling Degree Days 0 0  
Month to date cooling degree days 0  
Year to date cooling degree days 2  
Moisture  
Dew Point 34 °F    
Average Humidity 65    
Maximum Humidity 87    
Minimum Humidity 36    
Precipitation  
Precipitation 0.00 in 0.16 in 2.82 in (1987)
Month to date precipitation 2.09  
Year to date precipitation 9.09  
Snow  
Snow 0.00 in - - ()
Month to date snowfall  
Since 1 July snowfall  
Snow Depth -    
Sea Level Pressure  
Sea Level Pressure 29.89 in    
Wind  
Wind Speed 8 mph (WNW)    
Max Wind Speed 14 mph    
Max Gust Speed 17 mph    
Visibility 10 miles    
Events      
T = Trace of Precipitation, MM = Missing Value Source: NWS Daily Summary

Daily Weather History Graph

Daily Weather History Graph

Search for Another Location

Airport or City:

Trip Planner

Search our weather history database for the weather conditions in past years. The results will help you decide how hot, cold, wet, or windy it might be!

Date:

Astronomy

Mar. 17, 2014 Rise Set
Actual Time 7:27 AM CDT 7:28 PM CDT
Civil Twilight 7:02 AM CDT 7:53 PM CDT
Nautical Twilight 6:33 AM CDT 8:22 PM CDT
Astronomical Twilight 6:04 AM CDT 8:52 PM CDT
Moon 8:41 PM CDT (3/17) 7:46 AM CDT (3/17)
Length of Visible Light 12h 51m
Length of Day
12h 01m
Full, 99% of the Moon is Illuminated
Mar 17
Full
Mar 23
Last Quarter
Mar 30
New
Apr 7
First Quarter
Apr 15
Full

Hourly Weather History & Observations

Time (CDT) Temp. Windchill Dew Point Humidity Pressure Visibility Wind Dir Wind Speed Gust Speed Precip Events Conditions
12:02 AM 39.2 °F 32.0 °F 32.0 °F 75% 30.02 in 10.0 mi North 11.5 mph - N/A   Mostly Cloudy
12:21 AM 39.2 °F 31.6 °F 30.2 °F 70% 30.02 in 10.0 mi North 12.7 mph - N/A   Overcast
12:40 AM 39.2 °F 32.0 °F 30.2 °F 70% 30.02 in 10.0 mi North 11.5 mph - N/A   Overcast
1:00 AM 39.2 °F 32.5 °F 30.2 °F 70% 30.00 in 10.0 mi North 10.4 mph - N/A   Mostly Cloudy
1:20 AM 39.2 °F 32.5 °F 32.0 °F 75% 30.00 in 10.0 mi North 10.4 mph - N/A   Mostly Cloudy
1:40 AM 39.2 °F 31.2 °F 32.0 °F 75% 30.01 in 10.0 mi North 13.8 mph - N/A   Overcast
2:02 AM 39.2 °F 31.6 °F 32.0 °F 75% 30.01 in 10.0 mi North 12.7 mph - N/A   Mostly Cloudy
2:20 AM 39.2 °F 33.0 °F 30.2 °F 70% 30.00 in 10.0 mi North 9.2 mph - N/A   Overcast
2:43 AM 37.4 °F 30.3 °F 30.2 °F 75% 29.98 in 10.0 mi North 10.4 mph 16.1 mph N/A   Overcast
3:00 AM 37.4 °F 31.4 °F 30.2 °F 75% 29.97 in 10.0 mi North 8.1 mph - N/A   Mostly Cloudy
3:40 AM 37.4 °F 31.4 °F 30.2 °F 75% 29.97 in 10.0 mi NNW 8.1 mph - N/A   Scattered Clouds
4:00 AM 35.6 °F 28.6 °F 30.2 °F 81% 29.96 in 10.0 mi NNW 9.2 mph - N/A   Scattered Clouds
4:20 AM 35.6 °F 28.6 °F 30.2 °F 81% 29.95 in 10.0 mi North 9.2 mph - N/A   Scattered Clouds
4:40 AM 35.6 °F 30.7 °F 30.2 °F 81% 29.94 in 10.0 mi NNW 5.8 mph - N/A   Clear
5:02 AM 33.8 °F 27.7 °F 28.4 °F 81% 29.94 in 10.0 mi North 6.9 mph - N/A   Clear
5:20 AM 33.8 °F 30.8 °F 28.4 °F 81% 29.94 in 10.0 mi North 3.5 mph - N/A   Scattered Clouds
5:40 AM 33.8 °F 28.6 °F 28.4 °F 81% 29.94 in 10.0 mi NNW 5.8 mph - N/A   Mostly Cloudy
6:00 AM 33.8 °F 29.6 °F 30.2 °F 87% 29.95 in 10.0 mi NNW 4.6 mph - N/A   Overcast
6:20 AM 35.6 °F 31.7 °F 30.2 °F 81% 29.95 in 10.0 mi North 4.6 mph - N/A   Overcast
6:40 AM 35.6 °F 30.7 °F 30.2 °F 81% 29.96 in 10.0 mi North 5.8 mph - N/A   Overcast
7:02 AM 35.6 °F 32.8 °F 30.2 °F 81% 29.96 in 10.0 mi NW 3.5 mph - N/A   Overcast
7:20 AM 35.6 °F 31.7 °F 30.2 °F 81% 29.97 in 10.0 mi NNW 4.6 mph - N/A   Overcast
7:40 AM 35.6 °F 30.7 °F 30.2 °F 81% 29.97 in 10.0 mi NNW 5.8 mph - N/A   Overcast
8:02 AM 35.6 °F 30.7 °F 30.2 °F 81% 29.97 in 10.0 mi NNW 5.8 mph - N/A   Overcast
8:20 AM 35.6 °F 30.7 °F 30.2 °F 81% 29.98 in 10.0 mi NNW 5.8 mph - N/A   Overcast
8:40 AM 37.4 °F 32.8 °F 30.2 °F 75% 29.97 in 10.0 mi North 5.8 mph - N/A   Overcast
9:00 AM 37.4 °F 33.8 °F 30.2 °F 75% 29.97 in 10.0 mi NNW 4.6 mph - N/A   Mostly Cloudy
9:20 AM 39.2 °F 37.0 °F 32.0 °F 75% 29.96 in 10.0 mi North 3.5 mph - N/A   Scattered Clouds
9:40 AM 42.8 °F - 32.0 °F 66% 29.96 in 10.0 mi Calm Calm - N/A   Clear
10:00 AM 44.6 °F - 32.0 °F 61% 29.95 in 10.0 mi Calm Calm - N/A   Clear
10:20 AM 46.4 °F - 33.8 °F 62% 29.95 in 10.0 mi Calm Calm - N/A   Clear
10:40 AM 46.4 °F - 33.8 °F 62% 29.95 in 10.0 mi Calm Calm - N/A   Clear
11:00 AM 46.4 °F - 33.8 °F 62% 29.95 in 10.0 mi Calm Calm - N/A   Clear
11:20 AM 48.2 °F - 33.8 °F 58% 29.95 in 10.0 mi Calm Calm - N/A   Clear
11:40 AM 48.2 °F - 35.6 °F 62% 29.94 in 10.0 mi SW 5.8 mph - N/A   Clear
12:00 PM 48.2 °F - 35.6 °F 62% 29.94 in 10.0 mi SSW 5.8 mph - N/A   Clear
12:22 PM 48.2 °F - 37.4 °F 66% 29.93 in 10.0 mi WSW 8.1 mph - N/A   Clear
12:40 PM 50.0 °F - 35.6 °F 58% 29.91 in 10.0 mi SW 3.5 mph - N/A   Clear
1:00 PM 51.8 °F - 37.4 °F 58% 29.91 in 10.0 mi SSE 4.6 mph - N/A   Clear
1:20 PM 53.6 °F - 37.4 °F 54% 29.90 in 10.0 mi SSW 3.5 mph - N/A   Clear
1:40 PM 55.4 °F - 37.4 °F 51% 29.89 in 10.0 mi West 5.8 mph - N/A   Clear
2:00 PM 55.4 °F - 37.4 °F 51% 29.87 in 10.0 mi West 9.2 mph - N/A   Clear
2:20 PM 55.4 °F - 39.2 °F 54% 29.87 in 10.0 mi WSW 8.1 mph 17.3 mph N/A   Clear
2:40 PM 57.2 °F - 39.2 °F 51% 29.87 in 10.0 mi West 5.8 mph - N/A   Clear
3:00 PM 57.2 °F - 37.4 °F 48% 29.86 in 10.0 mi West 8.1 mph - N/A   Scattered Clouds
3:20 PM 59.0 °F - 37.4 °F 45% 29.84 in 10.0 mi West 5.8 mph - N/A   Scattered Clouds
3:41 PM 59.0 °F - 37.4 °F 45% 29.83 in 10.0 mi West 9.2 mph - N/A   Clear
4:01 PM 60.8 °F - 37.4 °F 42% 29.81 in 10.0 mi Calm Calm - N/A   Clear
4:21 PM 60.8 °F - 37.4 °F 42% 29.82 in 10.0 mi WSW 6.9 mph - N/A   Clear
4:41 PM 60.8 °F - 35.6 °F 39% 29.81 in 10.0 mi West 4.6 mph 9.2 mph N/A   Clear
5:01 PM 60.8 °F - 35.6 °F 39% 29.81 in 10.0 mi West 8.1 mph - N/A   Clear
5:21 PM 60.8 °F - 35.6 °F 39% 29.80 in 10.0 mi WSW 4.6 mph 9.2 mph N/A   Clear
5:41 PM 60.8 °F - 33.8 °F 36% 29.79 in 10.0 mi SW 9.2 mph - N/A   Clear
6:01 PM 59.0 °F - 33.8 °F 39% 29.79 in 10.0 mi South 4.6 mph - N/A   Clear
6:21 PM 57.2 °F - 35.6 °F 44% 29.79 in 10.0 mi SSW 8.1 mph - N/A   Clear
6:41 PM 57.2 °F - 33.8 °F 41% 29.79 in 10.0 mi SSW 5.8 mph - N/A   Clear
7:01 PM 55.4 °F - 35.6 °F 47% 29.78 in 10.0 mi South 5.8 mph - N/A   Clear
7:21 PM 51.8 °F - 35.6 °F 54% 29.78 in 10.0 mi South 6.9 mph - N/A   Clear
7:41 PM 50.0 °F - 35.6 °F 58% 29.78 in 10.0 mi South 5.8 mph - N/A   Clear
8:01 PM 48.2 °F - 35.6 °F 62% 29.78 in 10.0 mi South 5.8 mph - N/A   Clear
8:22 PM 48.2 °F - 35.6 °F 62% 29.77 in 10.0 mi SSE 5.8 mph - N/A   Clear
8:41 PM 48.2 °F - 37.4 °F 66% 29.78 in 10.0 mi SSE 4.6 mph - N/A   Clear
9:01 PM 48.2 °F - 37.4 °F 66% 29.77 in 10.0 mi SE 5.8 mph - N/A   Clear
9:22 PM 46.4 °F 43.5 °F 37.4 °F 71% 29.78 in 10.0 mi SE 5.8 mph - N/A   Clear
9:41 PM 46.4 °F 43.5 °F 37.4 °F 71% 29.78 in 10.0 mi SE 5.8 mph - N/A   Clear
10:01 PM 46.4 °F 43.5 °F 37.4 °F 71% 29.78 in 10.0 mi SE 5.8 mph - N/A   Clear
10:22 PM 46.4 °F 43.5 °F 37.4 °F 71% 29.79 in 10.0 mi SE 5.8 mph - N/A   Clear
10:41 PM 46.4 °F 44.3 °F 37.4 °F 71% 29.79 in 10.0 mi SE 4.6 mph - N/A   Clear
11:01 PM 44.6 °F 41.4 °F 37.4 °F 76% 29.79 in 10.0 mi SE 5.8 mph - N/A   Clear
11:21 PM 44.6 °F 41.4 °F 37.4 °F 76% 29.79 in 10.0 mi SE 5.8 mph - N/A   Clear
11:41 PM 44.6 °F 40.2 °F 37.4 °F 76% 29.78 in 10.0 mi ESE 8.1 mph - N/A   Clear